Jackson, MS

3:30 AM CDT on May 23, 2017 (GMT -0500)
Jackson-Evers International

Weather History for KJAN - November, 2011

Change the Weather History Date:

Thursday, November 3, 2011

  Actual Average Record
Temperature  
Mean Temperature 53 °F 60 °F  
Max Temperature 64 °F 72 °F 87 °F (1922)
Min Temperature 42 °F 48 °F 17 °F (1966)
Degree Days  
Heating Degree Days 12 7  
Month to date heating degree days 29 20  
Since 1 July heating degree days 163 127  
Cooling Degree Days 0 1  
Month to date cooling degree days 0 4  
Year to date cooling degree days 2643 2235  
Growing Degree Days 3 (Base 50)    
Moisture  
Dew Point 48 °F    
Average Humidity 72    
Maximum Humidity 93    
Minimum Humidity 51    
Precipitation  
Precipitation 0.23 in 0.14 in 1.49 in (1950)
Month to date precipitation 0.23 0.41  
Year to date precipitation 39.51 44.64  
Sea Level Pressure  
Sea Level Pressure 30.08 in    
Wind  
Wind Speed 8 mph (West)    
Max Wind Speed 21 mph    
Max Gust Speed 26 mph    
Visibility 9 miles    
Events Rain    
T = Trace of Precipitation, MM = Missing Value Source: NWS Daily Summary

Daily Weather History Graph

Daily Weather History Graph

Search for Another Location

Airport or City:

Trip Planner

Search our weather history database for the weather conditions in past years. The results will help you decide how hot, cold, wet, or windy it might be!

Date:

Astronomy

Nov. 03, 2011 Rise Set
Actual Time 7:18 AM CDT 6:08 PM CDT
Civil Twilight 6:53 AM CDT 6:33 PM CDT
Nautical Twilight 6:24 AM CDT 7:02 PM CDT
Astronomical Twilight 5:55 AM CDT 7:31 PM CDT
Moon 2:11 PM CDT (11/3) 12:54 AM CDT (11/3)
Length of Visible Light 11h 40m
Length of Day
10h 49m
First Quarter, 60% of the Moon is Illuminated
Nov 3
First Quarter
Nov 10
Full
Nov 18
Last Quarter
Nov 25
New
Dec 2
First Quarter

Hourly Weather History & Observations

Time (CDT) Temp. Windchill Dew Point Humidity Pressure Visibility Wind Dir Wind Speed Gust Speed Precip Events Conditions
12:54 AM 61.0 °F - 55.0 °F 81% 30.09 in 10.0 mi SSE 10.4 mph - N/A   Mostly Cloudy
1:54 AM 60.1 °F - 55.0 °F 83% 30.08 in 10.0 mi SSE 4.6 mph - N/A   Scattered Clouds
2:54 AM 60.1 °F - 55.9 °F 86% 30.06 in 10.0 mi Variable 4.6 mph - N/A   Partly Cloudy
3:37 AM 60.8 °F - 57.2 °F 88% 30.04 in 10.0 mi SSE 6.9 mph - N/A   Mostly Cloudy
3:54 AM 60.8 °F - 57.2 °F 88% 30.03 in 10.0 mi South 8.1 mph - N/A   Mostly Cloudy
4:27 AM 60.8 °F - 57.2 °F 88% 30.02 in 10.0 mi South 8.1 mph 16.1 mph N/A   Overcast
4:54 AM 62.1 °F - 59.0 °F 90% 30.01 in 10.0 mi South 5.8 mph - N/A   Overcast
4:56 AM 62.6 °F - 59.0 °F 88% 30.02 in 9.0 mi South 5.8 mph - N/A   Overcast
5:54 AM 63.0 °F - 60.1 °F 90% 29.99 in 9.0 mi South 10.4 mph 19.6 mph N/A   Overcast
6:38 AM 62.6 °F - 60.8 °F 94% 30.03 in 2.0 mi West 12.7 mph - 0.07 in Rain Heavy Rain
6:54 AM 59.0 °F - 57.9 °F 96% 30.03 in 3.0 mi West 10.4 mph 21.9 mph 0.18 in Rain Light Rain
7:06 AM 59.0 °F - 57.2 °F 94% 30.04 in 5.0 mi West 10.4 mph - 0.01 in Rain Light Rain
7:28 AM 55.4 °F - 53.6 °F 94% 30.06 in 6.0 mi West 12.7 mph 23.0 mph 0.05 in Rain Light Rain
7:45 AM 53.6 °F - 51.8 °F 94% 30.07 in 10.0 mi West 12.7 mph - 0.05 in   Overcast
7:54 AM 53.1 °F - 51.1 °F 93% 30.08 in 10.0 mi West 16.1 mph 21.9 mph 0.05 in   Overcast
8:31 AM 51.8 °F - 48.2 °F 88% 30.10 in 10.0 mi West 12.7 mph 25.3 mph N/A   Overcast
8:54 AM 50.0 °F - 46.9 °F 89% 30.12 in 10.0 mi NW 15.0 mph 26.5 mph N/A   Overcast
9:54 AM 48.9 °F - 45.0 °F 86% 30.13 in 10.0 mi West 13.8 mph 21.9 mph N/A   Overcast
10:54 AM 48.9 °F - 43.0 °F 80% 30.14 in 10.0 mi West 15.0 mph 21.9 mph N/A   Overcast
11:08 AM 48.2 °F - 41.0 °F 76% 30.14 in 10.0 mi West 12.7 mph 21.9 mph N/A   Overcast
11:54 AM 50.0 °F - 39.0 °F 66% 30.13 in 10.0 mi WNW 18.4 mph 24.2 mph N/A   Overcast
12:54 PM 52.0 °F - 39.0 °F 61% 30.11 in 10.0 mi WNW 13.8 mph 19.6 mph N/A   Mostly Cloudy
1:12 PM 51.8 °F - 39.2 °F 62% 30.11 in 10.0 mi WNW 12.7 mph 19.6 mph N/A   Mostly Cloudy
1:54 PM 54.0 °F - 39.0 °F 57% 30.09 in 10.0 mi WNW 12.7 mph - N/A   Mostly Cloudy
2:54 PM 55.0 °F - 39.0 °F 55% 30.08 in 10.0 mi WNW 10.4 mph 20.7 mph N/A   Mostly Cloudy
3:54 PM 57.0 °F - 39.0 °F 51% 30.08 in 10.0 mi WNW 12.7 mph 23.0 mph N/A   Mostly Cloudy
4:54 PM 55.9 °F - 39.0 °F 53% 30.08 in 10.0 mi NNW 10.4 mph - N/A   Scattered Clouds
5:54 PM 54.0 °F - 39.0 °F 57% 30.10 in 10.0 mi NNW 5.8 mph - N/A   Scattered Clouds
6:54 PM 53.1 °F - 39.0 °F 59% 30.11 in 10.0 mi Variable 6.9 mph - N/A   Mostly Cloudy
7:54 PM 48.9 °F - 39.9 °F 71% 30.12 in 10.0 mi WNW 3.5 mph - N/A   Scattered Clouds
8:54 PM 44.6 °F - 39.2 °F 81% 30.12 in 10.0 mi Calm Calm - N/A   Partly Cloudy
9:54 PM 45.0 °F - 39.0 °F 80% 30.13 in 10.0 mi Calm Calm - N/A   Clear
10:54 PM 43.0 °F - 39.9 °F 89% 30.13 in 10.0 mi Calm Calm - N/A   Partly Cloudy
11:54 PM 45.0 °F 42.6 °F 39.0 °F 80% 30.12 in 10.0 mi NW 4.6 mph - N/A   Partly Cloudy